Regional Weather Roundup
Issued by NWS Upton, NY

Current Version | Previous Version | Graphics & Text | Print | Product List | Glossary Off
Versions: 1 2 3 4 5 6 7 8 9 10 11 12 13 14 15 16 17 18 19 20 21 22 23 24 25 26 27 28 29 30 31 32 33 34 35 36 37 38 39 40 41 42 43 44 45 46 47 48 49 50

000
ASUS41 KOKX 160505
RWROKX

REGIONAL WEATHER ROUNDUP
NATIONAL WEATHER SERVICE NEW YORK NY
100 AM EDT TUE SEP 16 2014

NOTE: "FAIR" INDICATES FEW OR NO CLOUDS BELOW 12,000 FEET WITH NO
SIGNIFICANT WEATHER AND/OR OBSTRUCTIONS TO VISIBILITY.

NYZ071-072-176-178-NJZ106-104-160600-
NEW YORK CITY METRO AREA


CITY           SKY/WX    TMP DP  RH WIND       PRES   REMARKS
CENTRAL PARK   MOCLDY    63  52  67 CALM      30.09F
LAGUARDIA APRT MOCLDY    64  53  67 SW7       30.06F
KENNEDY INTL   CLOUDY    64  55  72 SW8       30.08F
NEWARK/LIBERTY CLOUDY    62  53  72 S5        30.07F
BRNX BOT. GARD   N/A     61  52  72 E2        30.08S
TETERBORO      MOCLDY    60  51  72 CALM      30.06F
$$

NYZ177-179-078>081-160600-
LONG ISLAND NEW YORK

CITY           SKY/WX    TMP DP  RH WIND       PRES   REMARKS
FARMINGDALE    MOCLDY    59  51  75 CALM      30.08F
ISLIP          MOCLDY    56  50  80 CALM      30.07F
SHIRLEY        MOCLDY    52  49  89 CALM      30.09F
WESTHAMPTON    PTCLDY    47  43  86 CALM      30.10F
MONTAUK POINT    N/A     55  51  86 CALM      30.11S
$$

NYZ052-065-067-160600-
HUDSON VALLEY

CITY           SKY/WX    TMP DP  RH WIND       PRES   REMARKS
WHITE PLAINS   PTCLDY    55  51  86 CALM      30.07F
NEWBURGH       NOT AVBL
MONTGOMERY     CLOUDY    52  49  89 CALM      30.06F
POUGHKEEPSIE   CLOUDY    55  50  83 CALM      30.05F
ALBANY         LGT RAIN  56  47  71 S3        30.05F
$$

NJZ001-105-106-008-010-013-015-019>022-104-160600-
NEW JERSEY

CITY           SKY/WX    TMP DP  RH WIND       PRES   REMARKS
NEWARK/LIBERTY CLOUDY    62  53  72 S5        30.07F
TETERBORO      MOCLDY    60  51  72 CALM      30.06F
CALDWELL       MOCLDY    55  49  80 CALM      30.07F
MORRISTOWN     MOCLDY    52  48  87 CALM      30.08S
SOMERVILLE     MOCLDY    52  48  86 CALM      30.06F
LINDEN         FAIR      64  56  73 CALM      30.09F
SUSSEX         MOCLDY    51  48  89 CALM      30.07S
ANDOVER          N/A     49  48  97 CALM      30.07F
TRENTON        CLOUDY    58  53  84 S6        30.08S
MILLVILLE      MOCLDY    55  53  93 CALM      30.07F
ATLANTIC CITY  PTCLDY    54  52  93 CALM      30.08F
WRIGHTSTOWN    MOCLDY    54  53  96 S2        30.06F
TOMS RIVER     MOCLDY    52  48  87 CALM      30.09F
BELMAR         MOCLDY    57  50  77 CALM      30.08F
$$

PAZ047>061-062-071-160600-
EASTERN PENNSYLVANIA

CITY           SKY/WX    TMP DP  RH WIND       PRES   REMARKS
PHILADELPHIA   CLOUDY    61  52  72 CALM      30.08F
ALLENTOWN      MOCLDY    53  49  86 CALM      30.06F
SCRANTON       CLOUDY    55  48  77 E5        30.04F
$$

CTZ002-004>006-009-010-012-RIZ004-006-007-MAZ004-011-015-160600-
SOUTHERN NEW ENGLAND
 IN CT

CITY           SKY/WX    TMP DP  RH WIND       PRES   REMARKS
BRADLEY INTL   CLOUDY    53  47  79 CALM      30.08F
HARTFORD       MOCLDY    54  50  86 CALM      30.08F
DANBURY        MOCLDY    51  48  89 CALM      30.09F
WTRBRY/OXFORD  MOCLDY    52  43  71 E3        30.09F
BRIDGEPORT     PTCLDY    61  51  70 VRB5      30.08F
MERIDEN        MOCLDY    50  47  89 CALM      30.08F
NEW HAVEN      PTCLDY    55  49  80 CALM      30.08F
CHESTER        FAIR      52  48  87 CALM      30.09F
GROTON         PTCLDY    50  48  93 NE5       30.09S
WILLIMANTIC    PTCLDY    49  46  90 CALM      30.10F

 IN RI

CITY           SKY/WX    TMP DP  RH WIND       PRES   REMARKS
PROVIDENCE     PTCLDY    51  47  86 SW5       30.11S
BLOCK ISLAND   MOCLDY    55  46  71 S5        30.10R
WESTERLY       PTCLDY    50  48  93 CALM      30.10S

 IN MA

CITY           SKY/WX    TMP DP  RH WIND       PRES   REMARKS
BOSTON         PTCLDY    56  49  77 S6        30.11S
WORCESTER      PTCLDY    51  45  79 CALM      30.10F
WESTFIELD      CLOUDY    52  49  89 CALM      30.09F
PROVINCETOWN   CLOUDY    57  48  72 SE3       30.11S
NANTUCKET      MOCLDY    56  49  77 E6        30.10S
$$

ANZ330-335-338-340-345-350-353-355-160600-
COASTAL MARINE OBSERVATIONS


STATION/POSITION TIME  SKY/WX   TEMP    WIND        PRES    VSBY  WAVE
                                AIR SEA DIR/SP/G                  HT/PER
                 (UTC)          (F)     (DEG/KT/KT) (MB)    (MI)  (FT/S)
NY HARB ENTRANCE NOT AVBL
4S FIRE IS       NOT AVBL
23SW MTP         0500                                 N/A           2/ 8
HUDSON CANYON    0500            66 73  120/  2/  2 1018.2          2/ 7
EXECUTION ROCKS  0500            66 71  230/ 12/ 16   N/A
WESTERN LI SOUND 0500            64     180/  8/  8   N/A           0
CENTRAL LI SOUND 0400            65 71  210/  8/ 12   N/A           1/ 3
EASTERN LI SOUND 0400            65 68  240/  8/ 10   N/A
ROBBINS REEF     0400            63                   N/A
$$


>>>>>>>>>>>>>>>>>>>>>>>>>>>> KEY <<<<<<<<<<<<<<<<<<<<<<<<<<<
>                                                          <
>     SKY/WX - SKY CONDITION/PRESENT WEATHER               <
>     TMP    - TEMPERATURE IN FAHRENHEIT                   <
>     DP     - DEWPOINT IN FAHRENHEIT                      <
>     RH     - RELATIVE HUMIDITY IN PERCENT                <
>     WIND   - DIRECTION AND SPEED IN MPH                  <
>     PRES   - MEAN SEA LEVEL PRESSURE IN INCHES OF HG     <
>     WCI    - WIND CHILL INDEX                            <
>     VSB    - VISIBILITY IN MILES                         <
>     HX     - HEAT INDEX                                  <
>     TC     - TEMPERATURE IN CELSIUS                      <
>     VRB    - VARIABLE WIND DIRECTION                     <
>                                                          <
>>>>>>>>>>>>>>>>>>>>>>>>>>>> KEY <<<<<<<<<<<<<<<<<<<<<<<<<<<




USA.gov is the U.S. government's official web portal to all federal, state and local government web resources and services.